Home > Weather > Lausanne > Past weeks

Flag for Switzerland Past Weather in Lausanne, Vaud, Switzerland — Yesterday and Last 2 Weeks

Now
75 °F

Passing clouds.


Feels Like: 77 °F
Forecast: 62 / 76 °F
Wind: 6 mph from Northwest

Location: Aigle

Current Time: Jul 26, 2016 at 12:24:12 PM

Latest Report: Jul 26, 2016 at 11:00 AM


Visibility: 13 mi

Pressure: 30.08 "Hg

Humidity: 68%

Dew Point: 64 °F

Location of LausanneLocation

Past Weather in Lausanne — Graph

°F

Lausanne Temperature Yesterday

Maximum temperature yesterday: 82 °F (at 4:00 PM)
Minimum temperature yesterday: 61 °F (at 6:00 AM)
Average temperature yesterday: 71 °F

High & Low Weather Summary for the Past Weeks

 TemperatureHumidityPressure
High88 °F (Jul 20, 5:00 PM)97% (Jul 22, 7:00 AM)30.31 "Hg (Jul 22, 7:00 AM)
Low46 °F (Jul 15, 6:00 AM)38% (Jul 16, 5:00 PM)29.86 "Hg (Jul 11, 6:00 PM)
Average67 °F77%30.08 "Hg
* Reported Jul 11 11:00 AM — Jul 26 11:00 AM, Lausanne, Weather by CustomWeather, © 2016

Note: Actual official high and low records may vary slightly from our data, if they occured in-between our weather recording intervals... More about our weather records

Advertising

Lausanne Weather History for the Previous 24 Hours

Scroll right to see more
 ConditionsComfort  
Time TempWeatherWind HumidityBarometerVisibility
11:00 AM
Tue, Jul 26
75 °FPassing clouds.6 mph68%30.08 "Hg12 mi
10:00 AM74 °FMild.7 mph74%30.08 "HgN/A
9:00 AM70 °FMild.5 mph76%30.10 "HgN/A
8:00 AM67 °FPassing clouds.3 mph88%30.09 "Hg14 mi
7:00 AM63 °FMild.3 mph95%30.10 "HgN/A
6:00 AM62 °FCool.1 mph95%30.10 "HgN/A
5:00 AM63 °FPassing clouds.1 mph95%30.10 "Hg11 mi
4:00 AM64 °FMild.2 mph95%30.10 "HgN/A
3:00 AM63 °FMild.2 mph96%30.10 "HgN/A
2:00 AM65 °FMild.2 mph94%30.10 "HgN/A
1:00 AM65 °FMild.2 mph96%30.10 "HgN/A
12:00 AM68 °FMild.1 mph95%30.09 "HgN/A
11:00 PM
Mon, Jul 25
69 °FMild.1 mph92%30.09 "HgN/A
10:00 PM70 °FMild.3 mph89%30.08 "HgN/A
9:00 PM72 °FMild.5 mph76%30.06 "HgN/A
8:00 PM74 °FOvercast.3 mph72%30.05 "Hg12 mi
7:00 PM78 °FWarm.8 mph62%30.03 "HgN/A
6:00 PM79 °FWarm.6 mph57%30.01 "HgN/A
5:00 PM81 °FPartly sunny.8 mph56%30.01 "Hg9 mi
4:00 PM82 °FWarm.9 mph56%30.00 "HgN/A
3:00 PM80 °FWarm.12 mph60%30.01 "HgN/A
2:00 PM79 °FWarm.9 mph61%30.03 "HgN/A
1:00 PM78 °FWarm.6 mph66%30.05 "HgN/A
12:00 PM76 °FMild.7 mph68%30.06 "HgN/A
Weather by CustomWeather, © 2016

See weather overviewHow to use our weather pages